Wetbulb
54.60 49.69 45.59 48.01 49.93 49.56 49.42 48.08 47.33 50.79 53.72 51.97 51.29 52.00 53.52 55.42 55.86 55.65 55.79 56.21 56.29 57.08 58.89 59.74 60.80 60.58 62.71 65.04 65.93 64.19 62.94 62.75 62.34 62.02 60.94 59.70 58.36 58.90 58.08 57.31 57.22 56.71 56.25 55.83
49.96 46.30 51.33 52.95 51.95 50.50 48.73 47.05 47.53 50.89 52.68 51.80 51.02 50.54 53.29 54.73 55.05 55.83 55.88 56.09 56.78 56.82 57.77 58.83 59.89 61.64 62.36 64.71 64.94 63.47 62.43 61.44 61.68 61.88 60.98 60.29 58.71 58.04 57.74 56.62 56.22 56.14 55.64 55.04
47.05 49.68 53.19 51.65 50.14 48.79 48.73 47.08 48.17 47.85 50.81 52.09 50.65 48.18 50.72 54.16 55.25 55.97 56.74 57.21 57.38 57.65 57.49 58.13 58.96 60.38 61.69 63.58 64.34 62.36 61.85 61.05 61.40 61.44 60.74 59.55 57.84 56.81 55.60 55.18 54.88 54.92 54.99 54.45
47.47 51.99 50.35 49.81 48.65 49.99 44.89 51.21 50.36 48.82 46.63 41.30 50.01 39.69 48.38 51.93 52.57 54.56 55.73 56.61 56.81 57.55 58.44 59.09 59.69 59.98 61.25 62.24 64.58 62.13 61.37 60.94 60.66 60.64 59.03 57.65 55.72 53.77 54.79 54.07 54.68 54.14 54.20 53.72
46.00 47.73 47.97 47.19 48.79 50.83 46.96 51.63 48.46 47.91 44.79 44.09 45.04 41.99 46.10 50.79 49.92 52.46 54.89 56.39 57.52 58.53 58.90 58.45 59.21 60.28 61.60 62.90 64.06 62.31 61.01 60.27 59.89 59.56 58.82 57.18 55.91 55.61 55.53 54.61 53.34 53.04 53.07 52.86
48.25 52.89 50.47 49.50 51.14 51.00 51.19 48.18 47.61 47.24 44.92 36.65 42.73 42.24 42.79 47.29 49.82 52.45 54.74 55.74 56.51 57.31 58.73 59.41 60.62 61.58 60.58 63.26 64.83 62.32 60.51 59.54 58.98 58.92 57.98 57.16 56.17 55.15 54.02 53.33 52.07 51.59 51.50 51.56
45.60 46.59 50.55 51.33 46.99 49.92 48.27 43.19 35.66 34.53 34.71 33.91 44.81 41.50 43.37 49.74 52.21 53.26 53.11 55.14 56.65 57.50 58.16 57.77 58.27 58.48 59.94 62.13 63.54 61.68 60.08 58.76 58.49 58.02 57.67 57.20 56.63 55.51 53.58 52.80 51.83 50.68 49.83 49.80
38.58 36.75 46.02 50.09 46.92 44.62 45.03 43.76 36.10 30.41 31.79 35.48 44.06 38.08 43.69 51.67 53.42 54.07 54.57 55.79 57.22 57.66 58.04 57.85 58.18 58.31 58.36 60.63 62.39 62.68 59.93 59.63 58.88 57.77 57.44 58.11 57.32 56.35 54.63 53.15 51.92 50.65 49.62 50.40
35.23 38.09 48.08 48.82 49.88 48.77 43.99 40.23 46.35 38.69 39.68 34.87 38.66 43.18 48.23 50.70 50.71 52.01 52.99 54.48 54.43 54.90 55.64 56.37 57.73 58.43 58.75 58.22 61.66 61.90 61.79 60.59 59.33 57.51 57.71 57.60 56.65 55.54 53.75 52.88 51.82 50.59 50.14 50.08
33.25 29.63 41.80 45.20 47.86 47.92 45.91 48.31 38.35 39.20 30.64 30.14 35.70 38.18 39.58 44.90 43.80 46.19 44.94 51.53 53.34 54.11 54.82 55.53 56.45 58.03 59.23 58.81 60.97 61.36 60.79 59.61 58.49 57.09 57.30 57.15 54.49 54.09 52.38 51.44 50.13 49.83 49.14 48.51
35.35 32.89 33.00 37.66 39.14 34.36 38.51 38.81 41.01 36.93 33.02 29.52 26.05 34.81 41.87 38.56 41.86 43.19 42.42 52.74 53.60 53.94 54.08 54.77 55.39 57.04 57.33 57.79 58.52 57.63 58.05 57.01 55.39 55.61 55.59 54.35 51.72 51.17 49.66 49.11 48.87 48.16 46.78 46.64
34.90 32.10 28.19 31.71 37.59 39.74 36.52 34.06 32.98 26.30 23.54 27.82 29.55 29.73 42.90 41.06 42.66 43.42 43.60 50.09 53.63 54.23 53.62 54.22 54.64 55.07 55.31 55.88 56.65 55.63 55.29 54.95 54.42 53.22 52.14 50.71 49.68 48.07 46.99 46.07 45.66 44.92 44.54 44.22
35.77 30.67 23.79 26.98 34.50 36.70 32.08 32.67 35.55 32.36 31.21 27.90 26.07 30.53 40.65 41.76 43.45 42.99 43.73 43.84 44.79 49.24 52.81 53.34 53.29 53.61 53.97 54.56 54.21 54.04 53.53 53.12 52.38 51.83 50.63 48.89 46.63 45.12 42.78 41.67 42.03 41.67 42.58 42.29
36.73 31.74 27.95 22.92 27.78 33.74 29.18 31.30 33.28 33.20 26.43 26.74 27.87 28.72 35.14 38.21 40.50 43.38 43.70 43.45 43.36 44.94 51.24 52.04 52.25 53.01 53.90 53.77 53.62 53.25 52.98 53.58 52.27 50.70 49.66 46.65 44.17 42.28 40.78 39.75 39.87 38.94 40.41 39.74
35.43 27.73 29.94 30.38 31.92 31.26 30.33 30.24 31.11 28.70 30.70 26.84 29.20 30.42 34.92 38.32 41.11 43.47 43.13 43.96 42.18 42.63 44.04 48.33 51.27 52.02 52.63 52.67 53.28 53.16 52.16 52.05 51.40 50.20 46.90 42.49 41.17 39.95 38.19 36.30 34.89 36.16 37.26 37.05
36.74 29.14 31.06 27.38 31.39 30.97 28.38 30.77 30.90 30.91 31.80 31.74 32.65 32.09 39.84 42.45 44.47 43.27 43.21 43.11 41.72 43.21 44.38 44.89 46.37 49.88 51.36 51.80 51.67 52.40 51.79 50.83 50.95 49.45 46.10 44.17 41.61 39.35 37.83 36.08 36.00 36.06 35.01 34.17
32.45 29.81 27.33 22.41 28.97 28.34 22.78 28.02 30.05 31.30 33.04 32.57 28.63 34.87 40.40 40.88 42.30 42.98 43.24 43.96 43.24 43.91 44.52 44.99 46.22 47.98 49.20 49.65 50.62 50.21 51.03 51.54 50.04 48.69 47.93 45.72 42.35 39.75 38.41 37.01 36.08 35.77 35.14 35.37
31.45 29.51 28.44 23.26 25.63 15.76 28.70 35.26 34.94 33.16 34.28 35.91 35.66 37.27 39.61 41.82 45.05 45.92 45.78 43.87 44.83 45.33 44.76 45.44 46.55 46.80 48.22 49.58 50.21 49.58 50.97 50.45 49.45 48.74 47.67 45.58 41.40 39.49 38.61 36.93 36.15 35.86 35.86 35.18
36.07 31.48 26.18 21.87 22.17 26.04 29.22 32.58 30.86 30.34 31.30 37.43 33.79 35.60 38.12 43.29 45.12 44.43 46.48 46.45 46.37 47.06 45.82 46.25 46.96 48.12 47.76 48.55 49.75 49.28 49.18 49.35 48.63 48.61 48.21 45.82 43.54 39.59 38.02 36.34 35.99 35.72 34.35 33.81
34.63 33.97 27.85 25.26 19.39 16.41 24.42 30.71 35.23 36.27 27.11 33.97 34.46 33.33 34.41 38.68 35.70 40.57 46.34 46.58 47.72 47.55 46.26 46.47 47.63 48.19 47.87 48.71 49.66 49.39 49.08 48.17 47.75 47.96 47.97 44.65 43.04 39.98 37.52 35.97 35.04 35.03 34.29 33.56
26.27 26.97 23.43 24.33 22.30 25.17 28.59 31.94 34.30 25.22 26.03 33.61 34.42 34.42 33.22 35.54 41.67 44.86 46.87 45.76 46.29 46.21 46.16 47.31 46.89 46.56 47.28 48.34 49.08 47.71 48.35 47.66 48.71 47.75 47.26 45.31 43.49 39.40 37.01 35.26 34.35 33.63 33.08 33.08
24.00 22.56 23.01 23.09 20.53 17.25 33.34 31.53 23.86 29.51 33.86 33.91 33.94 34.75 35.37 38.84 44.89 44.23 45.08 45.22 45.66 45.01 45.42 46.35 46.43 46.33 47.41 48.38 48.12 47.15 44.90 46.06 46.01 45.11 44.08 42.80 40.79 37.43 35.62 33.99 33.26 32.90 32.70 32.19
23.72 27.86 24.22 25.33 24.93 33.45 37.24 33.67 35.79 36.89 34.73 33.65 34.00 35.95 39.10 42.99 43.46 43.68 43.87 43.95 44.38 44.76 45.25 46.73 45.97 45.61 45.98 47.09 47.29 43.47 43.07 42.97 40.91 38.85 35.26 34.71 34.35 33.44 33.44 32.90 32.33 32.15 32.18 31.47
30.80 33.04 28.39 27.52 30.72 32.56 36.88 37.17 37.61 38.22 36.00 35.58 36.05 36.22 40.47 37.39 42.71 43.39 43.86 44.19 44.10 44.78 45.35 46.31 45.28 43.24 42.26 43.40 43.15 42.46 42.48 41.21 37.88 34.68 34.03 33.99 33.08 32.54 32.54 32.99 32.84 32.19 31.31 30.45
30.88 32.24 29.51 28.91 31.96 33.96 34.23 36.02 36.08 36.28 37.13 36.24 37.19 36.13 38.88 40.25 40.68 42.33 43.10 43.74 44.14 44.52 44.94 45.15 43.97 42.63 41.67 41.25 40.62 41.10 40.60 38.57 35.91 34.35 33.83 33.52 34.13 33.58 32.34 32.69 32.37 32.05 32.26 31.52
32.95 30.18 27.06 26.20 34.40 33.71 33.25 36.55 37.64 36.26 35.63 37.00 35.58 34.39 37.40 39.98 41.53 43.46 43.19 43.63 43.41 43.00 43.95 43.93 43.87 43.65 42.45 41.56 40.15 39.98 40.35 38.74 36.24 34.38 34.45 33.58 32.82 32.52 32.27 32.20 31.59 33.41 32.23 32.00
MSLP
1001.30 1001.19 1000.54 1001.52 1001.26 1000.90 1000.16 998.64 996.36 994.96 993.76 993.10 991.90 990.70 990.15 989.82 989.69 989.83 990.26 990.41 990.60 990.98 990.99 991.36 991.97 992.71 993.63 994.64 996.94 999.04 1000.99 1002.96 1004.39 1004.54 1004.73 1005.37 1005.92 1006.87 1007.52 1008.25 1009.15 1010.14 1011.04 1011.75
1000.87 997.81 999.17 999.45 999.39 998.90 998.42 997.28 995.37 994.48 994.11 993.60 991.47 990.30 989.34 989.07 988.86 988.83 988.99 989.22 989.46 989.91 990.41 990.87 991.42 991.99 992.92 994.33 996.46 998.35 999.88 1001.66 1003.46 1004.37 1004.44 1004.76 1005.16 1005.74 1006.71 1007.51 1008.52 1009.47 1010.28 1011.14
999.50 994.54 997.98 998.28 997.64 996.70 996.08 995.23 994.72 993.81 993.75 993.19 992.09 991.32 988.61 988.58 988.64 988.38 987.96 987.90 988.38 988.88 989.26 989.78 990.36 990.92 992.08 993.53 995.75 997.65 999.29 1000.66 1002.05 1003.76 1004.80 1005.20 1005.68 1006.26 1006.34 1006.78 1007.62 1008.59 1009.30 1010.20
998.44 995.86 996.90 996.69 995.22 995.46 994.74 994.55 994.36 993.82 993.67 993.17 993.52 991.36 988.38 988.61 987.91 987.91 987.00 986.96 987.00 987.29 987.60 988.12 988.78 989.62 990.73 992.04 994.18 996.24 998.11 999.72 1001.42 1003.00 1003.97 1004.46 1004.58 1004.88 1005.38 1005.96 1006.85 1008.09 1008.89 1009.57
995.02 995.41 996.18 995.52 993.72 994.99 994.02 994.47 994.39 994.31 994.09 994.26 993.83 992.45 987.16 989.41 987.03 986.35 986.31 985.92 985.65 985.66 986.07 986.63 987.45 988.43 989.49 991.06 993.41 995.32 997.06 998.84 1000.13 1001.84 1002.98 1003.74 1004.25 1004.95 1005.34 1006.13 1006.94 1007.95 1008.84 1009.48
995.91 995.58 995.85 994.16 994.33 994.19 994.46 994.37 994.80 994.74 994.65 993.78 992.19 992.06 990.16 988.16 986.35 986.31 985.94 985.64 985.40 985.30 985.52 985.97 986.76 987.67 988.60 990.26 992.47 994.75 996.52 998.10 999.51 1000.91 1002.34 1003.08 1003.76 1004.22 1004.86 1005.55 1006.46 1007.57 1008.46 1009.36
996.35 994.97 994.65 994.79 994.47 994.57 994.51 995.34 994.85 994.80 994.33 992.01 991.74 991.76 990.37 987.58 985.40 986.38 985.99 985.74 984.96 985.14 985.65 986.67 987.50 988.29 989.02 990.20 991.90 994.03 995.78 997.33 998.69 999.85 1000.99 1002.05 1002.85 1003.45 1003.88 1004.91 1005.83 1007.05 1008.07 1008.82
997.06 995.80 993.67 993.02 994.34 993.29 994.50 995.05 994.92 993.24 992.86 992.27 991.63 989.75 987.29 987.07 985.36 985.98 985.56 985.59 985.92 986.33 986.87 987.46 988.09 988.80 989.39 990.37 991.48 993.04 994.93 996.34 997.89 999.31 1000.20 1001.16 1001.96 1002.65 1003.46 1003.81 1004.93 1006.27 1007.36 1008.28
999.03 996.51 993.86 993.53 993.50 994.44 993.66 994.62 993.50 994.54 994.00 992.95 991.32 989.02 987.55 986.05 985.68 985.68 986.34 986.19 986.53 987.10 987.54 987.95 988.36 989.14 989.62 990.28 991.40 992.28 993.70 995.32 996.92 998.46 999.87 1000.81 1001.50 1002.01 1002.66 1003.50 1004.25 1005.52 1006.79 1007.94
1002.69 1000.48 997.19 995.29 993.78 993.65 993.45 992.82 994.35 994.96 994.50 992.98 991.28 990.03 988.78 989.06 990.51 989.17 988.87 986.56 986.30 986.66 987.61 988.44 989.07 989.41 989.89 990.83 991.72 992.74 993.47 994.90 996.40 998.26 999.30 1000.33 1001.27 1001.71 1002.72 1003.17 1004.04 1005.16 1006.27 1007.17
1003.36 1002.02 999.79 999.15 996.85 997.11 996.06 995.53 995.42 995.44 996.22 993.85 994.26 991.91 993.69 993.89 994.46 992.74 990.82 987.34 987.23 987.65 988.22 989.07 989.95 990.33 990.67 991.50 992.51 993.62 994.44 995.55 996.68 997.95 999.27 1000.14 1001.08 1001.70 1002.83 1003.82 1004.13 1004.98 1006.06 1006.93
1003.96 1003.04 1002.19 1000.24 997.63 998.51 999.07 999.30 999.16 999.04 999.23 998.12 997.14 994.99 994.88 995.81 995.11 994.67 993.61 991.18 989.57 989.18 989.82 990.47 990.67 990.74 991.03 992.20 993.21 994.52 995.14 996.45 997.30 998.08 999.41 1000.28 1001.23 1002.05 1003.11 1004.21 1004.89 1005.34 1005.99 1007.14
1003.04 1003.02 1002.70 1000.36 998.28 999.58 1000.16 999.88 999.92 1000.37 999.72 999.20 998.96 997.02 996.09 995.15 994.95 994.41 995.89 994.64 993.57 993.40 991.02 991.28 991.55 992.64 992.42 992.70 993.78 995.33 996.07 996.40 997.84 998.73 999.79 1000.84 1001.75 1002.50 1003.55 1004.50 1005.35 1005.94 1006.54 1007.68
1002.56 1002.35 1001.33 1000.19 999.07 999.58 1000.42 999.85 999.62 999.36 999.22 999.35 998.91 997.52 996.00 995.56 995.31 995.18 995.04 995.24 995.77 995.50 992.91 991.84 992.30 992.45 993.18 993.71 994.50 995.46 996.02 996.71 997.98 999.00 1000.06 1001.13 1002.14 1002.93 1003.86 1004.88 1005.49 1006.16 1006.65 1007.76
1001.53 1001.18 1001.03 1000.21 1000.00 1000.02 999.51 998.43 997.54 997.30 998.26 998.03 996.43 997.06 994.96 995.90 995.58 995.29 995.45 995.00 996.42 996.89 996.23 993.78 992.73 992.94 993.37 993.92 994.78 995.76 996.38 997.10 998.19 999.42 1000.60 1001.76 1002.59 1003.54 1004.38 1005.42 1006.28 1006.71 1007.18 1008.00
1000.45 1000.31 1000.22 1000.22 999.80 998.84 998.11 997.57 997.42 997.17 996.59 996.32 995.77 994.32 993.54 992.92 993.16 993.77 995.14 995.21 995.21 996.23 996.26 996.11 995.21 993.97 993.99 994.64 994.89 995.81 996.31 997.17 997.80 999.05 1000.45 1001.47 1002.54 1003.77 1004.86 1005.60 1006.18 1007.15 1007.98 1008.78
1000.11 1000.33 1000.35 999.64 999.35 998.41 997.19 996.68 996.48 995.83 995.78 995.82 994.92 993.52 992.94 991.70 991.94 993.16 994.34 993.79 995.08 995.33 995.51 995.87 995.60 995.69 995.27 995.66 995.80 996.43 995.87 997.65 997.99 999.09 1000.28 1001.51 1002.80 1003.91 1005.10 1006.19 1006.83 1006.84 1007.44 1008.15
999.86 1000.29 1000.50 999.97 999.64 998.48 996.44 996.26 995.50 994.95 994.52 994.58 993.99 993.18 992.72 991.23 991.13 992.23 991.68 992.63 994.34 994.68 994.83 995.37 995.32 995.41 995.09 995.95 996.51 996.11 996.64 997.59 997.72 998.71 999.85 1001.08 1002.81 1003.67 1004.94 1006.04 1006.82 1007.55 1007.97 1008.42
998.52 999.17 999.84 999.96 998.89 997.67 997.06 996.88 997.22 996.66 994.87 995.40 995.76 994.88 993.55 991.72 991.10 990.82 991.63 992.70 993.25 993.67 994.00 994.42 994.91 995.06 994.62 995.28 996.48 996.90 997.38 997.70 997.94 998.32 999.56 1001.03 1002.38 1003.61 1004.89 1005.88 1006.72 1007.12 1007.60 1008.08
997.73 998.64 999.39 999.83 999.30 998.33 998.85 998.45 998.23 997.48 995.76 996.77 996.82 996.19 995.58 994.26 992.21 991.14 991.72 992.20 992.70 993.06 993.18 994.40 994.65 994.78 995.06 994.60 996.77 996.74 997.29 997.81 998.02 998.49 999.62 1000.75 1001.94 1003.16 1004.39 1005.55 1005.98 1006.40 1007.23 1008.02
998.42 998.89 999.10 999.10 998.42 998.71 999.52 998.62 997.58 997.87 998.22 997.58 997.69 997.20 996.03 994.55 992.50 991.47 991.40 991.52 992.08 992.61 993.58 994.51 994.00 995.18 994.76 995.36 996.38 997.14 997.73 998.25 998.02 998.69 999.73 1000.56 1001.84 1003.08 1003.99 1004.87 1005.65 1006.18 1006.96 1007.65
998.79 998.90 999.02 998.98 998.69 998.82 999.09 998.49 999.17 999.46 999.04 998.94 998.50 997.79 995.79 993.29 991.56 991.76 991.84 991.61 992.00 992.69 993.30 993.94 994.14 995.11 995.47 996.05 996.29 997.71 998.79 999.22 998.84 1000.01 1000.99 1001.84 1002.38 1002.94 1003.84 1004.83 1005.62 1006.12 1006.63 1007.38
998.02 998.42 998.65 999.04 998.96 998.43 998.63 999.01 999.10 998.92 998.69 998.85 998.73 997.58 995.43 991.98 991.83 992.32 992.86 992.48 992.54 992.82 993.33 993.86 994.93 995.72 996.66 996.57 997.33 998.93 1000.16 1000.26 1000.02 1001.17 1002.54 1003.16 1003.51 1003.66 1004.07 1004.84 1005.65 1006.39 1006.82 1007.13
997.85 997.70 998.06 998.09 997.92 997.66 998.00 998.42 997.99 998.07 997.86 998.33 998.50 997.96 995.94 994.56 993.04 992.59 993.00 992.71 992.83 992.83 993.47 994.33 995.56 996.86 997.85 998.28 999.28 999.96 1001.02 1001.28 1001.15 1002.45 1003.69 1004.15 1004.42 1004.75 1005.03 1005.11 1005.79 1006.37 1006.74 1006.88
997.64 997.30 997.08 997.00 996.99 996.77 997.02 997.10 997.33 997.40 997.35 997.72 998.04 998.35 996.94 995.54 994.46 993.47 992.85 992.85 992.96 993.80 994.54 995.28 996.48 997.58 998.42 999.54 1000.36 1000.97 1001.44 1001.62 1001.66 1003.06 1003.81 1004.20 1004.75 1005.07 1005.00 1005.20 1006.15 1006.30 1006.56 1006.67
997.18 997.13 997.56 997.00 996.51 996.27 996.40 996.53 996.75 996.65 996.87 997.34 997.73 997.88 997.34 996.38 994.92 993.97 993.72 993.45 993.76 994.72 995.59 996.19 996.94 997.94 998.61 999.57 1000.28 1001.20 1001.36 1001.80 1002.23 1002.57 1003.02 1003.90 1004.83 1005.56 1004.97 1005.68 1006.48 1006.85 1006.22 1007.04
Wind_Speed
20 18 21 24 27 28 27 29 32 25 24 21 24 25 21 20 20 20 20 21 18 18 13 14 14 17 11 19 27 27 24 21 14 14 15 14 13 12 12 11 15 17 13 13
21 31 27 28 28 28 30 30 31 28 25 24 27 29 26 20 19 19 20 18 18 19 17 14 11 11 13 13 23 24 25 23 19 13 13 13 13 13 12 11 14 16 15 14
25 39 25 29 28 31 29 29 26 29 24 23 25 28 32 25 24 24 23 20 20 19 21 24 22 17 18 16 25 23 23 23 21 18 11 11 10 9 11 13 12 16 17 16
25 29 30 28 31 27 29 27 28 28 24 16 19 22 33 18 27 24 25 25 24 27 27 23 21 19 20 22 25 26 25 23 20 19 15 19 15 15 12 11 11 14 17 16
36 31 27 29 33 23 28 24 25 26 24 22 22 18 35 16 27 21 23 20 14 16 13 25 20 16 15 23 22 22 24 22 22 20 17 15 16 12 11 10 13 13 13 14
38 28 28 31 27 29 25 24 22 18 17 18 30 21 16 22 28 19 18 16 18 17 13 5 4 4 12 21 21 21 23 22 21 22 18 19 18 16 12 13 12 11 11 11
26 37 32 31 32 26 20 13 9 8 11 16 24 20 17 29 28 21 22 16 21 20 9 7 5 3 2 18 20 21 23 22 23 24 21 21 19 17 15 15 12 14 12 11
16 20 34 29 31 25 19 22 9 16 17 18 19 16 20 21 30 20 23 13 2 3 5 6 6 4 4 10 19 23 23 22 23 23 23 18 20 13 11 14 12 12 11 11
7 15 21 24 26 27 35 29 28 27 25 17 19 29 23 27 30 23 20 18 13 10 9 7 7 5 6 5 15 16 20 19 21 21 19 20 13 16 12 13 12 11 12 11
3 7 11 16 11 13 33 23 18 18 10 13 11 20 15 15 22 22 26 14 18 15 13 8 6 5 5 8 7 10 11 15 14 16 16 15 9 11 7 10 12 14 13 15
2 2 14 13 4 15 9 7 11 1 2 3 5 7 15 21 22 24 34 17 12 13 9 9 7 6 8 7 8 10 10 11 11 13 12 11 7 8 7 8 10 11 9 12
5 2 7 16 14 17 7 5 3 4 6 2 2 6 9 13 17 20 24 22 7 5 5 5 7 8 12 9 8 8 8 9 9 10 9 8 8 8 8 6 7 10 11 13
7 5 6 12 4 6 4 6 2 4 3 1 4 5 17 16 15 13 17 18 20 25 9 9 9 6 8 9 12 9 7 10 11 10 10 9 8 8 8 8 9 10 13 12
6 5 8 11 10 4 10 15 9 7 2 4 8 21 19 21 18 12 6 11 18 23 9 8 8 10 11 8 11 11 10 10 12 10 10 10 9 9 10 10 11 12 12 14
7 7 12 12 12 14 18 21 18 14 13 12 19 16 26 18 17 10 5 9 10 15 22 14 8 9 9 10 10 11 11 10 11 10 9 8 8 9 10 9 8 9 11 11
14 5 8 10 15 19 20 19 20 20 18 18 22 27 18 15 13 5 8 9 15 10 7 6 18 8 8 10 8 11 13 12 12 12 12 12 11 11 10 11 13 11 9 9
7 6 9 16 18 21 16 13 19 23 22 22 23 22 17 17 12 13 14 13 13 12 11 5 4 4 7 6 2 5 9 11 10 10 11 11 10 9 8 8 9 11 13 14
8 10 9 12 17 19 18 20 24 23 21 18 24 21 21 18 13 14 7 11 15 17 15 11 8 5 6 4 2 6 5 7 8 10 10 11 11 10 9 10 10 10 9 11
18 15 10 10 16 19 25 16 12 16 23 17 15 20 22 18 5 12 12 13 11 8 11 9 7 7 7 8 6 4 4 7 7 5 9 13 12 11 10 8 9 8 8 9
3 6 9 14 12 15 5 14 14 16 19 19 19 19 21 21 12 11 14 13 13 8 12 9 8 4 5 8 1 4 6 5 10 9 6 14 13 13 12 11 11 9 9 9
3 3 7 10 8 5 6 14 14 8 9 21 20 20 21 19 17 10 10 10 12 13 11 6 7 4 7 7 5 3 3 4 8 11 9 11 11 11 11 9 7 8 9 8
5 3 2 4 5 4 3 7 6 8 12 17 20 21 25 24 13 5 9 12 13 13 11 9 8 8 6 6 3 9 9 7 10 10 9 8 6 6 7 9 7 8 9 9
1 3 2 0 3 9 4 4 6 8 11 14 18 22 22 8 12 16 7 7 9 13 11 10 10 9 8 7 8 10 7 8 11 10 7 7 6 5 6 8 7 6 7 8
5 1 2 3 5 11 7 4 9 10 8 12 14 19 15 10 6 9 13 12 11 10 9 12 14 12 10 8 9 8 6 10 11 9 6 5 5 5 5 4 5 6 7 7
8 9 9 9 9 8 5 4 7 12 10 7 12 16 17 11 9 12 9 10 11 9 9 13 12 11 12 10 8 7 7 9 10 8 5 6 4 4 4 4 4 4 4 7
11 7 6 10 11 7 6 6 11 9 12 3 7 15 17 11 12 8 9 10 12 11 9 9 11 12 12 11 10 8 7 8 8 7 6 4 3 1 3 3 3 3 6 10
Wind_Direction
227 235 220 223 222 243 251 258 269 270 281 278 254 257 258 248 240 229 233 239 222 258 242 218 223 206 207 183 165 171 173 180 179 184 180 180 183 181 178 179 169 173 180 179
247 242 231 233 235 234 233 249 258 271 268 276 281 282 274 251 256 255 243 250 247 212 231 228 229 203 194 176 163 169 174 173 184 198 193 186 180 181 179 177 169 172 176 179
242 247 239 232 247 246 246 248 257 261 264 262 277 282 272 265 261 256 255 242 239 253 225 221 216 209 189 182 164 172 176 174 179 194 194 185 184 180 185 183 173 175 174 177
241 256 253 255 250 232 251 251 260 262 270 265 264 270 270 261 262 258 252 239 234 231 233 237 211 208 191 190 167 168 173 176 179 185 189 193 191 187 192 185 175 173 174 179
240 245 237 248 253 260 265 279 279 281 279 281 262 259 266 269 259 250 244 246 248 233 258 216 222 200 203 184 164 167 167 174 176 185 189 193 194 193 186 182 170 171 176 178
248 249 247 255 260 258 266 283 279 276 269 256 246 242 254 266 256 265 261 281 264 250 233 178 152 174 222 177 157 163 167 173 175 181 191 196 197 192 185 181 173 173 174 176
242 249 245 245 261 270 259 264 246 220 222 239 249 251 237 257 257 261 265 284 258 248 124 128 152 183 199 164 162 162 170 176 179 183 189 194 198 197 185 184 176 172 175 178
244 243 240 231 232 242 236 237 233 244 242 251 234 232 237 236 258 240 249 255 125 89 124 169 170 200 224 167 175 159 172 178 179 184 187 196 194 195 192 181 175 178 178 182
348 244 272 258 226 224 241 243 237 253 256 264 251 261 264 249 245 257 260 251 170 181 181 191 168 199 205 210 170 169 168 175 173 182 185 194 194 191 186 178 170 171 169 176
17 303 314 309 295 258 238 246 231 232 228 230 209 239 250 297 351 349 333 230 189 175 174 168 156 169 100 78 112 149 145 164 153 170 182 189 179 183 163 162 162 166 166 168
297 107 317 315 351 344 328 297 265 221 341 333 307 260 26 3 346 338 334 252 173 185 158 147 164 138 103 83 99 108 121 127 128 150 173 176 152 144 137 166 157 152 142 157
163 195 263 294 303 288 43 75 55 62 326 266 239 273 65 345 345 344 346 343 342 110 124 169 147 143 127 137 119 113 116 133 132 131 127 123 119 117 124 128 134 135 136 141
170 171 288 282 205 63 336 311 6 169 189 11 310 286 330 334 328 5 335 353 354 330 160 156 138 141 137 142 125 128 125 129 137 136 135 125 124 122 116 118 123 116 125 136
174 211 221 249 271 321 278 287 275 187 245 295 250 292 292 308 304 306 342 25 355 354 270 153 166 150 147 135 131 148 140 133 144 142 144 138 132 134 131 134 132 135 134 131
221 233 223 256 273 280 279 286 307 313 273 244 274 250 268 267 269 262 208 135 46 5 345 341 161 137 116 128 144 139 132 123 130 136 115 123 120 123 122 123 125 131 140 143
217 274 264 273 277 270 268 276 277 271 271 275 273 265 268 255 258 233 193 147 141 156 290 27 346 14 136 141 135 138 139 151 147 147 147 153 143 144 149 150 150 142 138 138
292 289 297 285 290 295 288 274 273 273 264 265 261 272 273 261 235 218 192 167 170 180 171 176 152 15 30 66 82 133 112 148 152 146 140 149 137 147 153 159 169 167 170 166
233 246 259 272 282 268 268 269 269 276 280 269 254 269 269 281 247 210 198 176 192 186 178 177 169 147 143 109 84 89 146 150 135 146 149 150 144 149 155 166 177 183 178 179
232 235 247 251 256 280 285 318 344 317 291 301 354 332 324 302 272 225 204 209 192 226 159 161 149 173 152 143 134 157 198 152 148 151 163 157 153 149 160 173 184 179 169 174
33 290 242 246 248 269 22 342 338 295 267 10 344 332 329 325 241 232 204 198 214 181 139 158 157 172 150 112 105 186 179 161 160 166 176 144 149 155 166 176 176 172 177 180
355 325 265 270 241 203 7 342 331 226 335 328 334 321 319 300 252 225 227 161 139 135 148 173 107 155 101 91 144 204 190 91 73 65 64 135 150 156 163 162 162 163 171 167
231 256 9 306 292 11 313 347 17 299 317 325 328 313 302 299 216 123 149 150 141 139 142 153 115 95 84 116 145 93 78 65 66 64 68 86 108 127 141 148 147 158 160 163
92 134 356 260 302 275 158 220 277 303 312 328 325 319 316 315 144 156 180 134 143 144 156 130 116 106 65 56 66 83 72 64 69 69 61 66 72 86 118 133 145 151 165 168
330 49 223 301 302 292 135 216 281 257 323 332 338 322 322 359 359 152 174 163 161 147 134 126 113 105 89 60 73 87 111 102 90 91 90 84 93 100 102 111 145 159 169 167
318 304 298 283 303 301 2 273 339 316 316 327 352 338 337 11 285 172 148 105 93 99 76 97 109 115 118 115 106 88 91 98 95 100 106 88 88 104 117 118 156 162 169 174
291 358 315 283 262 303 297 321 314 297 311 75 12 346 339 330 299 62 92 84 88 84 83 95 115 126 122 115 105 103 95 103 118 116 90 72 77 51 122 131 148 157 159 177